Location: Brachbach
(49.1847°N, 9.7240°E)
Time: 07:19:47
(UTC+00:00)

FO-29 - Pass Details

Date: 23 March 2026
Orbit: 801 x 1320 km, 98.5° (Epoch: 17 April)

Event Time Altitude Azimuth Distance (km) Brightness Sun altitude
Rises 20:40:12 0° 12° (NNE) 4,207 13.2 -28.0°
Reaches altitude 10° 20:42:53 10° 8° (N) 3,280 12.6 -28.3°
Maximum altitude 20:50:20 56° 294° (WNW) 1,542 10.7 -29.2°
Drops below altitude 10° 20:57:55 10° 219° (SW) 3,328 12.2 -30.1°
Sets 21:00:39 0° 215° (SW) 4,272 12.7 -30.4°
